[[{"header":{"parameterUnit":"m.s-1","parameterCategory":1,"la1":30.2991,"la2":30.254,"lo1":-89.0895,"lo2":-89.0444,"dx":0.0017,"dy":0.0017,"nx":28,"ny":28,"refTime":"2022-11-29T09:00:00:Z","depth":0,"parameterNumber":2,"parameterNumberName":"U-component_of_WINDS"},"data":[0,0,0,0,0,0,0,0,0,0,0,0,0,0,0,0,0,0,0,0,0,0,0,0,0,0,0,0,0,0,0,0,0,0,0,0,0,0,0,0,0,0,0,0,0,0,0,0,0,0,0,0,0,0,0,0,0,0,-3.1867,-3.1867,0,-3.1918,-3.1919,-3.1919,-3.185,-3.1847,-3.1845,-3.1843,-3.1898,-3.1902,-3.1906,0,0,0,0,0,0,0,0,0,0,0,0,0,-3.1712,-3.1715,-3.1867,-3.1867,-3.1868,-3.1918,-3.1919,-3.1919,-3.185,-3.1847,-3.1844,-3.1841,-3.1897,-3.1902,-3.1906,0,0,0,0,0,0,0,0,0,0,0,0,0,-3.1773,-3.1716,-3.1867,-3.1839,-3.1838,-3.1918,-3.1919,-3.1919,-3.1851,-3.1847,-3.1843,-3.184,-3.1896,-3.1901,-3.1907,-3.2017,0,0,-3.1924,-3.1927,0,0,0,0,0,0,0,0,-3.177,-3.1779,-3.1843,-3.1841,-3.1839,-3.1874,-3.1884,-3.1952,-3.1852,-3.1846,-3.1842,-3.1838,-3.1893,-3.1899,-3.1917,-3.202,-3.2022,-3.1925,-3.1928,-3.1931,-3.1932,0,0,0,0,0,0,0,-3.1766,-3.1776,-3.1887,-3.1844,-3.1842,-3.1826,-3.183,-3.1897,-3.189,-3.1846,-3.1841,-3.1848,-3.1892,-3.1912,-3.1918,-3.2023,-3.1925,-3.193,-3.1933,-3.1936,-3.2218,-3.2222,0,0,0,0,0,0,-3.1764,-3.1773,-3.1885,-3.1889,-3.1795,-3.1832,-3.1837,-3.1867,-3.1889,-3.1889,-3.1851,-3.1845,-3.1904,-3.1911,-3.192,-3.2049,-3.1931,-3.1936,-3.1939,-3.2214,-3.2219,-3.2223,0,0,0,0,0,0,-3.1761,-3.1775,-3.1883,-3.183,-3.1842,-3.1838,-3.1872,-3.187,-3.1889,-3.1893,-3.1892,-3.1873,-3.1901,-3.1911,-3.1993,-3.205,-3.1939,-3.1944,-3.2209,-3.2215,-3.2221,-3.231,0,0,0,0,0,0,-3.1757,-3.1774,-3.1815,-3.1831,-3.1845,-3.1955,-3.1876,-3.1873,-3.1899,-3.1891,-3.1913,-3.1913,-3.1899,-3.1985,-3.1999,-3.2056,-3.1948,-3.2204,-3.2212,-3.2219,-3.2302,-3.2318,-3.2332,0,0,0,0,0,-3.1752,-3.1839,-3.1818,-3.1832,-3.1896,-3.1959,-3.1967,-3.1948,-3.1904,-3.1945,-3.1948,-3.1912,-3.2042,-3.1994,-3.2009,-3.2069,-3.22,-3.221,-3.2218,-3.2295,-3.2315,-3.2332,0,0,0,0,0,0,-3.1831,-3.1841,-3.1817,-3.1912,-3.1935,-3.1947,-3.1998,-3.197,-3.2007,-3.1998,-3.1975,-3.198,-3.2067,-3.2076,-3.2022,-3.2176,-3.2114,-3.2126,-3.2167,-3.2186,-3.2201,-3.2196,-3.1953,0,0,0,0,0,-3.186,-3.1908,-3.1914,-3.1998,-3.201,-3.2003,-3.2029,-3.2013,-3.2036,-3.2046,-3.2054,-3.2079,-3.2125,-3.2156,-3.2199,-3.2303,-3.2307,-3.2352,-3.2367,-3.2379,-3.239,-3.2445,-3.2465,-3.2253,-3.2253,-3.2253,0,0,-3.1919,-3.193,-3.1963,-3.2014,-3.203,-3.2081,-3.2011,-3.2069,-3.2107,-3.2055,-3.2131,-3.2139,-3.2165,-3.2258,-3.2299,-3.2268,-3.245,-3.2391,-3.2401,-3.2405,-3.2457,-3.2477,-3.2495,-3.2259,-3.2258,-3.2257,0,0,-3.2054,-3.2067,-3.2137,-3.2154,-3.2179,-3.2173,-3.219,-3.2207,-3.2209,-3.2286,-3.2247,-3.2293,-3.2373,-3.2393,-3.2414,-3.2556,-3.2525,-3.2571,-3.265,-3.2704,-3.2721,-3.2736,-3.2786,-3.2804,-3.2582,-3.2583,-3.2583,0,-3.2125,-3.22,-3.2177,-3.2237,-3.2261,-3.2215,-3.2286,-3.2304,-3.2342,-3.236,-3.2325,-3.2424,-3.2439,-3.2535,-3.257,-3.2589,-3.2607,-3.2568,-3.272,-3.2735,-3.2748,-3.2795,-3.2814,-3.2588,-3.2587,-3.2587,-3.2586,0,-3.2285,-3.2338,-3.2392,-3.2428,-3.2458,-3.2524,-3.2512,-3.2546,-3.2527,-3.2525,-3.2604,-3.262,-3.2665,-3.2687,-3.267,-3.2781,-3.2761,-3.2724,-3.266,-3.2774,-3.2818,-3.2836,-3.2596,-3.2594,-3.2592,-3.2591,0,0,-3.247,-3.2493,-3.2513,-3.2529,-3.2552,-3.2593,-3.2657,-3.27,-3.2729,-3.2757,-3.281,-3.2879,-3.2844,-3.2868,-3.2853,-3.29,-3.3011,-3.2857,-3.2857,-3.2884,-3.3134,-3.3161,-3.3182,-3.2991,-3.2994,-3.2997,-3.3131,0,-3.2604,-3.2712,-3.2694,-3.28,-3.2848,-3.2805,-3.2861,-3.2882,-3.2883,-3.2925,-3.2926,-3.2975,-3.2926,-3.2939,-3.2985,-3.2988,-3.3061,-3.2978,-3.304,-3.3042,-3.3033,-3.3205,-3.3234,-3.336,-3.3148,-3.3151,-3.3153,0,-3.2773,-3.2806,-3.2916,-3.2931,-3.2951,-3.3001,-3.3038,-3.3079,-3.3103,-3.31,-3.3126,-3.3102,-3.3167,-3.3104,-3.3192,-3.3136,-3.3161,-3.3166,-3.3171,-3.3175,-3.3104,-3.3213,-3.34,-3.3418,-3.318,-3.3178,-3.3176,0,-3.2895,-3.2967,-3.3042,-3.3057,-3.3077,-3.3113,-3.3124,-3.3143,-3.317,-3.3204,-3.3221,-3.3262,-3.3284,-3.3317,-3.3306,-3.3261,-3.3397,-3.3332,-3.3396,-3.3396,-3.3425,-3.3423,-3.3618,-3.3444,-3.3443,-3.3443,-3.3443,0,-3.3045,-3.3114,-3.3097,-3.3143,-3.3219,-3.3198,-3.3274,-3.328,-3.3298,-3.3345,-3.3311,-3.3356,-3.3339,-3.3383,-3.3375,-3.3449,-3.346,-3.3459,-3.3456,-3.3461,-3.3461,-3.3476,-3.3467,-3.3448,-3.3447,-3.3446,-3.3445,0,-3.3194,-3.3185,-3.3264,-3.3276,-3.3281,-3.3337,-3.3348,-3.3391,-3.3389,-3.3449,-3.3462,-3.346,-3.351,-3.3502,-3.3558,-3.3552,-3.3645,-3.3632,-3.3636,-3.3633,-3.3696,-3.369,-3.3906,-3.3933,-3.3743,-3.3745,-3.3746,0,-3.3289,-3.3341,-3.3359,-3.3387,-3.3399,-3.3446,-3.3472,-3.3455,-3.3484,-3.3515,-3.3555,-3.3602,-3.3638,-3.3721,-3.3725,-3.3767,-3.3754,-3.3827,-3.376,-3.3764,-3.3754,-3.375,-3.3755,-3.384,-3.3842,-3.3844,-3.3845,0,-3.3459,-3.3452,-3.3491,-3.3529,-3.3561,-3.3591,-3.3617,-3.3643,-3.3627,-3.3662,-3.3712,-3.3741,-3.3797,-3.3844,-3.3885,-3.3896,-3.3869,-3.3866,-3.3883,-3.3888,-3.3888,-3.3888,-3.3671,-3.3861,-3.3859,-3.3858,-3.3857,-3.3857,-3.3583,-3.3626,-3.3645,-3.369,-3.3708,-3.3733,-3.3774,-3.3777,-3.3818,-3.3862,-3.3849,-3.3906,-3.3929,-3.3979,-3.3996,-3.4041,-3.4014,-3.4039,-3.4045,-3.4051,-3.4057,-3.3882,-3.4048,-3.4048,-3.4047,-3.4047,-3.4047,0,-3.3749,-3.3759,-3.3801,-3.3838,-3.3873,-3.3843,-3.3871,-3.3902,-3.3952,-3.3975,-3.4012,-3.4069,-3.4115,-3.4123,-3.4166,-3.4201,-3.4189,-3.4212,-3.4209,-3.4212,-3.408,-3.406,-3.4221,-3.4221,-3.4221,-3.4221,-3.4221,-3.4221,-3.384,-3.3912,-3.3907,-3.3988,-3.3998,-3.4052,-3.407,-3.4094,-3.4111,-3.4177,-3.4214,-3.4218,-3.4235,-3.428,-3.432,-3.4321,-3.4339,-3.4367,-3.4363,-3.4239,-3.4222,-3.4205,-3.4186,-3.4371,-3.4371,-3.4492,-3.4493,-3.4494]},{"header":{"parameterUnit":"m.s-1","parameterCategory":1,"la1":30.2991,"la2":30.254,"lo1":-89.0895,"lo2":-89.0444,"dx":0.0017,"dy":0.0017,"nx":28,"ny":28,"refTime":"2022-11-29T09:00:00:Z","depth":0,"parameterNumber":3,"parameterNumberName":"V-component_of_WINDS"},"data":[0,0,0,0,0,0,0,0,0,0,0,0,0,0,0,0,0,0,0,0,0,0,0,0,0,0,0,0,0,0,0,0,0,0,0,0,0,0,0,0,0,0,0,0,0,0,0,0,0,0,0,0,0,0,0,0,0,0,1.7558,1.7558,0,1.7603,1.7604,1.7604,1.7561,1.7559,1.7557,1.7556,1.7605,1.7608,1.7611,0,0,0,0,0,0,0,0,0,0,0,0,0,1.7437,1.744,1.7558,1.7558,1.7559,1.7603,1.7604,1.7604,1.7561,1.7559,1.7557,1.7555,1.7604,1.7607,1.7611,0,0,0,0,0,0,0,0,0,0,0,0,0,1.7487,1.744,1.7557,1.7542,1.7541,1.7603,1.7604,1.7605,1.7561,1.7559,1.7556,1.7554,1.7603,1.7607,1.7611,1.7691,0,0,1.7625,1.7627,0,0,0,0,0,0,0,0,1.7484,1.7491,1.7544,1.7543,1.7543,1.7573,1.7579,1.7634,1.7562,1.7554,1.7555,1.7552,1.7597,1.7601,1.7616,1.7693,1.7695,1.7625,1.7628,1.763,1.7631,0,0,0,0,0,0,0,1.7481,1.7489,1.7576,1.7545,1.7544,1.7535,1.7539,1.7589,1.759,1.7554,1.7551,1.7557,1.7596,1.7612,1.7617,1.7696,1.7625,1.7629,1.7632,1.7633,1.7844,1.7847,0,0,0,0,0,0,1.7478,1.7487,1.7574,1.7577,1.7506,1.7539,1.7544,1.7566,1.7589,1.759,1.7559,1.7555,1.7605,1.7612,1.7618,1.7714,1.763,1.7634,1.7636,1.7841,1.7844,1.7848,0,0,0,0,0,0,1.7476,1.7487,1.7572,1.7531,1.7541,1.7544,1.757,1.7569,1.7584,1.7592,1.7593,1.7575,1.7604,1.7612,1.7674,1.7715,1.7636,1.764,1.7837,1.7842,1.7846,1.7907,0,0,0,0,0,0,1.7473,1.7486,1.7515,1.7532,1.7544,1.7626,1.7572,1.7571,1.7592,1.7586,1.7607,1.7608,1.7602,1.7667,1.7678,1.772,1.7643,1.7834,1.7839,1.7845,1.7901,1.7913,1.7923,0,0,0,0,0,1.7469,1.753,1.7517,1.7528,1.758,1.7628,1.7635,1.7626,1.7595,1.7625,1.7631,1.7608,1.7709,1.7674,1.7686,1.773,1.7831,1.7838,1.7844,1.7896,1.791,1.7922,0,0,0,0,0,0,1.7519,1.7532,1.7517,1.7586,1.7606,1.7621,1.7658,1.7641,1.7671,1.7665,1.7653,1.7658,1.7723,1.7733,1.7693,1.7809,1.7765,1.7775,1.7801,1.7814,1.7825,1.7822,1.7647,0,0,0,0,0,1.7538,1.7575,1.7585,1.7645,1.7656,1.7656,1.7676,1.7668,1.7688,1.7697,1.7707,1.7729,1.7766,1.7791,1.7825,1.7902,1.7907,1.7939,1.7949,1.7958,1.7967,1.8011,1.8025,1.7869,1.7869,1.7869,0,0,1.7577,1.7589,1.7614,1.7655,1.767,1.771,1.7663,1.7707,1.7737,1.7704,1.7763,1.7771,1.7795,1.7866,1.7897,1.7875,1.8011,1.7967,1.7974,1.7977,1.8019,1.8034,1.8047,1.7874,1.7873,1.7872,0,0,1.7671,1.7683,1.7735,1.7751,1.7774,1.7773,1.7786,1.7804,1.7808,1.7867,1.7843,1.788,1.7943,1.7962,1.798,1.8083,1.8064,1.8095,1.8151,1.8194,1.8207,1.8217,1.8256,1.827,1.8103,1.8103,1.8103,0,1.7717,1.7776,1.7764,1.781,1.7831,1.7802,1.7856,1.7872,1.7906,1.7921,1.7896,1.7976,1.799,1.8066,1.8091,1.8106,1.8122,1.8092,1.8206,1.8216,1.8226,1.8263,1.8277,1.8107,1.8106,1.8106,1.8105,0,1.7833,1.7875,1.7914,1.7947,1.7971,1.8021,1.8019,1.8046,1.8035,1.8039,1.81,1.8116,1.8154,1.8172,1.8162,1.8247,1.8233,1.8207,1.8163,1.8245,1.828,1.8293,1.8112,1.8111,1.811,1.8109,0,0,1.7958,1.7985,1.8,1.8016,1.804,1.8072,1.8122,1.8159,1.8183,1.8207,1.825,1.8306,1.8283,1.8303,1.8295,1.8333,1.8416,1.8303,1.8303,1.8325,1.8513,1.8533,1.8549,1.8403,1.8406,1.8408,1.8512,0,1.8053,1.8139,1.8131,1.8212,1.8252,1.8226,1.827,1.8291,1.8296,1.8331,1.8336,1.8377,1.8342,1.8355,1.8391,1.8398,1.8454,1.8391,1.8445,1.8447,1.844,1.8567,1.8588,1.8684,1.8525,1.8527,1.8529,0,1.8175,1.8204,1.829,1.831,1.8326,1.8366,1.84,1.8433,1.8457,1.8458,1.8482,1.8469,1.8521,1.8476,1.8549,1.8506,1.8528,1.8535,1.8539,1.8544,1.8493,1.8577,1.8715,1.873,1.8549,1.8548,1.8546,0,1.826,1.832,1.838,1.8394,1.8418,1.8447,1.8459,1.848,1.8504,1.8534,1.855,1.8586,1.8607,1.8636,1.8634,1.8601,1.8709,1.8662,1.8713,1.8713,1.8737,1.8736,1.8882,1.875,1.8749,1.8749,1.8749,0,1.8367,1.8421,1.8418,1.8455,1.8516,1.8507,1.8567,1.8576,1.8596,1.8635,1.8616,1.8653,1.8648,1.8686,1.8685,1.8747,1.8756,1.8759,1.8759,1.8762,1.8762,1.8776,1.877,1.8753,1.8752,1.8751,1.8751,0,1.8472,1.8472,1.8536,1.8554,1.856,1.8604,1.8621,1.8657,1.8661,1.8711,1.8722,1.8729,1.8773,1.8774,1.8825,1.8824,1.89,1.8891,1.8892,1.8891,1.8942,1.8937,1.9103,1.9125,1.8978,1.8979,1.898,0,1.8541,1.8582,1.8605,1.863,1.8643,1.8683,1.8708,1.8701,1.8728,1.8759,1.8792,1.8835,1.8868,1.8941,1.8951,1.8991,1.8983,1.9039,1.8989,1.8992,1.8986,1.8984,1.8989,1.9049,1.905,1.9052,1.9053,0,1.8664,1.8662,1.8697,1.8733,1.8763,1.8791,1.8817,1.8839,1.8836,1.8867,1.8912,1.8938,1.8991,1.9034,1.9073,1.9086,1.907,1.9068,1.9082,1.9086,1.9086,1.9089,1.892,1.9065,1.9063,1.9062,1.9062,1.9061,1.8753,1.879,1.8812,1.8853,1.8872,1.8897,1.8932,1.8941,1.8978,1.902,1.9015,1.9066,1.9091,1.9141,1.9158,1.9199,1.918,1.92,1.9205,1.9211,1.9217,1.9079,1.9206,1.9206,1.9206,1.9205,1.9205,0,1.8877,1.889,1.8928,1.8965,1.8998,1.8979,1.9007,1.9036,1.9081,1.9106,1.914,1.9193,1.9236,1.925,1.9291,1.9322,1.9315,1.9333,1.9331,1.9335,1.9231,1.9215,1.9337,1.9337,1.9337,1.9337,1.9337,1.9337,1.8945,1.9005,1.9007,1.9078,1.9092,1.9141,1.9159,1.9184,1.9203,1.9264,1.9299,1.9307,1.9329,1.9372,1.9411,1.9414,1.9432,1.9453,1.9453,1.9355,1.9342,1.9329,1.9315,1.9456,1.9456,1.9554,1.9555,1.9556]}]]